This is the latest recevied weather packets stored in our database for station/object K0APR. If no packets are shown the sender has not sent any weather packets the latest 10 day(s).
| Time | Temp. | Humidity | Pressure | Rain* | Wind** | Luminosity | Snow |
|---|---|---|---|---|---|---|---|
| 1777649332 | 6.11° C | 65% | 1020 hPa | 0 mm | - | 599 W/m² | - |
| 1777649030 | 6.11° C | 66% | 1020 hPa | 0 mm | - | 596 W/m² | - |
| 1777648727 | 6.11° C | 68% | 1020 hPa | 0 mm | - | 597 W/m² | - |
| 1777648423 | 5.56° C | 68% | 1019.6 hPa | 0 mm | - | 560 W/m² | - |
| 1777648119 | 5.56° C | 69% | 1019.6 hPa | 0 mm | - | 540 W/m² | - |
| 1777647816 | 5.56° C | 70% | 1020 hPa | 0 mm | - | 520 W/m² | - |
| 1777647512 | 5° C | 70% | 1019.6 hPa | 0 mm | - | 485 W/m² | - |
| 1777647209 | 5.56° C | 69% | 1019.6 hPa | 0 mm | - | 461 W/m² | - |
| 1777646906 | 5° C | 71% | 1019.6 hPa | 0 mm | - | 432 W/m² | - |
| 1777646602 | 5° C | 70% | 1020 hPa | 0 mm | - | 430 W/m² | - |
| 1777646298 | 5° C | 72% | 1020 hPa | 0 mm | - | 419 W/m² | - |
| 1777645995 | 4.44° C | 71% | 1019.6 hPa | 0 mm | - | 390 W/m² | - |
| 1777645692 | 4.44° C | 72% | 1020 hPa | 0 mm | - | 389 W/m² | - |
| 1777645388 | 4.44° C | 73% | 1019.6 hPa | 0 mm | - | 381 W/m² | - |
| 1777645084 | 4.44° C | 73% | 1019.6 hPa | 0 mm | - | 363 W/m² | - |
| 1777644781 | 3.89° C | 74% | 1020 hPa | 0 mm | - | 331 W/m² | - |
| 1777644478 | 3.89° C | 74% | 1019.6 hPa | 0 mm | - | 323 W/m² | - |
| 1777644175 | 3.89° C | 75% | 1020 hPa | 0 mm | - | 284 W/m² | - |
| 1777643871 | 3.33° C | 75% | 1019.6 hPa | 0 mm | - | 259 W/m² | - |
| 1777643569 | 3.33° C | 75% | 1019.6 hPa | 0 mm | - | 235 W/m² | - |
| 1777643265 | 3.33° C | 76% | 1020 hPa | 0 mm | - | 229 W/m² | - |
| 1777642962 | 2.78° C | 76% | 1020 hPa | 0 mm | - | 207 W/m² | - |
| 1777642658 | 2.78° C | 77% | 1020 hPa | 0 mm | - | 192 W/m² | - |
| 1777642355 | 2.78° C | 77% | 1019.6 hPa | 0 mm | - | 194 W/m² | - |
| 1777642052 | 2.78° C | 78% | 1019.6 hPa | 0 mm | - | 200 W/m² | - |
* Rain latest hour (hover to see other rain measurements)
** Current wind speed in m/s (hover to see current wind gust speed)